This demonstration page uses our WeatherBlox Daily Observations layout. Learn more.

Left ArrowRight Arrow

Hourly Observations for June 7, 2022

Temp ( °F °C ) Dew Point ( °F °C ) Humidity (%) Winds ( mph kmh ) Pressure ( in mb ) Visibility ( mi km ) Precip ( " mm )
12:15 am 00:15 Clear 68 20 55 13 64 64 S 6 9 30.04 1017 10 16 0.00 0.00
12:35 am 00:35 Clear 66 19 55 13 68 68 S 6 9 30.04 1017 10 16 0.00 0.00
12:55 am 00:55 Clear 64 18 55 13 73 73 Calm 30.04 1017 10 16 0.00 0.00
1:15 am 01:15 Clear 64 18 55 13 73 73 SSW 3 6 30.04 1017 10 16 0.00 0.00
1:35 am 01:35 Clear 64 18 55 13 73 73 SSW 3 6 30.04 1017 10 16 0.00 0.00
1:55 am 01:55 Clear 63 17 55 13 77 77 SSW 3 6 30.04 1017 10 16 0.00 0.00
2:15 am 02:15 Clear 63 17 55 13 77 77 S 3 6 30.04 1017 10 16 0.00 0.00
2:35 am 02:35 Clear 63 17 55 13 77 77 SW 3 6 30.03 1017 10 16 0.00 0.00
2:55 am 02:55 Clear 63 17 57 14 83 83 S 3 6 30.03 1017 10 16 0.00 0.00
3:15 am 03:15 Clear 63 17 57 14 83 83 S 5 7 30.02 1016 10 16 0.00 0.00
3:35 am 03:35 Clear 63 17 57 14 83 83 S 5 7 30.02 1016 10 16 0.00 0.00
3:55 am 03:55 Clear 59 15 55 13 88 88 Calm 30.02 1017 10 16 0.00 0.00
4:15 am 04:15 Clear 63 17 59 15 88 88 S 3 6 30.02 1016 10 16 0.00 0.00
4:35 am 04:35 Clear 61 16 59 15 94 94 S 5 7 30.02 1016 10 16 0.00 0.00
4:55 am 04:55 Clear 63 17 59 15 88 88 SSE 5 7 30.01 1016 10 16 0.00 0.00
5:15 am 05:15 Clear 63 17 59 15 88 88 S 5 7 30.02 1016 10 16 0.00 0.00
5:35 am 05:35 Clear 61 16 59 15 94 94 S 5 7 30.02 1016 10 16 0.00 0.00
5:55 am 05:55 Sunny 61 16 59 15 94 94 S 6 9 30.02 1016 10 16 0.00 0.00
6:15 am 06:15 Sunny 63 17 61 16 94 94 S 6 9 30.02 1016 10 16 0.00 0.00
6:35 am 06:35 Sunny 63 17 61 16 94 94 S 6 9 30.02 1016 10 16 0.00 0.00
6:55 am 06:55 Sunny 63 17 61 16 94 94 S 7 11 30.03 1017 10 16 0.00 0.00
7:15 am 07:15 Sunny 64 18 61 16 88 88 S 6 9 30.01 1016 10 16 0.00 0.00
7:35 am 07:35 Sunny 64 18 63 17 94 94 S 9 15 30.01 1016 10 16 0.00 0.00
7:55 am 07:55 Partly Cloudy 66 19 63 17 88 88 S 9 15 30.02 1017 10 16 0.00 0.00
8:15 am 08:15 Partly Cloudy 66 19 63 17 88 88 S 12 19 30.01 1016 10 16 0.00 0.00
8:35 am 08:35 Mostly Cloudy 66 19 63 17 88 88 S 9 15 30.01 1016 10 16 0.00 0.00
8:55 am 08:55 Cloudy 68 20 63 17 83 83 S 14 22 30.01 1016 10 16 0.00 0.00
9:15 am 09:15 Mostly Cloudy 68 20 63 17 83 83 S 15 24 30.01 1016 10 16 0.00 0.00
9:35 am 09:35 Cloudy 70 21 64 18 83 83 S 13 20 30.00 1016 10 16 0.00 0.00
9:55 am 09:55 Cloudy 70 21 64 18 83 83 S 12 19 30.00 1016 10 16 0.00 0.00
10:15 am 10:15 Mostly Cloudy 72 22 64 18 78 78 S 15 24 30.00 1016 10 16 0.00 0.00
10:35 am 10:35 Mostly Cloudy 72 22 64 18 78 78 S 15 24 30.00 1016 10 16 0.00 0.00
10:55 am 10:55 Cloudy 72 22 64 18 78 78 SSW 12 19 30.00 1016 10 16 0.00 0.00
11:15 am 11:15 Cloudy 73 23 66 19 78 78 S 8 13 30.00 1016 10 16 0.00 0.00
11:35 am 11:35 Cloudy 73 23 66 19 78 78 SSW 14 22 29.99 1015 10 16 0.00 0.00
11:55 am 11:55 Mostly Cloudy 75 24 66 19 74 74 S 17 28 29.99 1015 10 16 0.00 0.00
12:15 pm 12:15 Cloudy 73 23 66 19 78 78 S 13 20 29.98 1015 10 16 0.00 0.00
12:35 pm 12:35 Cloudy 73 23 66 19 78 78 SSW 10 17 29.98 1015 10 16 0.00 0.00
12:55 pm 12:55 Cloudy with Light Rain 73 23 68 20 83 83 S 10 17 29.98 1015 10 16 0.00 0.00
1:15 pm 13:15 Mostly Cloudy 75 24 68 20 78 78 S 12 19 29.97 1015 10 16 0.00 0.00
1:35 pm 13:35 Mostly Cloudy 75 24 66 19 74 74 S 12 19 29.96 1014 10 16 0.00 0.00
1:55 pm 13:55 Cloudy with Light Rain 75 24 68 20 78 78 S 12 19 29.96 1014 10 16 0.00 0.00
2:15 pm 14:15 Cloudy 75 24 68 20 78 78 S 12 19 29.95 1014 10 16 0.00 0.00
2:35 pm 14:35 Cloudy with Light Rain 75 24 68 20 78 78 S 8 13 29.94 1014 10 16 0.00 0.00
2:55 pm 14:55 Cloudy with Light Rain 73 23 70 21 89 89 S 7 11 29.94 1014 7 11 0.00 0.00
3:15 pm 15:15 Cloudy with Light Rain 73 23 70 21 89 89 S 9 15 29.93 1013 10 16 0.00 0.00
3:35 pm 15:35 Cloudy with Light Rain 73 23 70 21 89 89 S 10 17 29.93 1013 10 16 0.00 0.00
3:55 pm 15:55 Cloudy with Rain 72 22 70 21 94 94 S 9 15 29.93 1013 5 8 0.03 0.76
4:15 pm 16:15 Cloudy with Rain 72 22 70 21 94 94 SSW 9 15 29.94 1014 3 4 0.08 2.03
4:35 pm 16:35 Cloudy 70 21 70 21 100 100 S 10 17 29.93 1014 10 16 0.08 2.03
4:55 pm 16:55 Cloudy 72 22 70 21 94 94 S 7 11 29.92 1013 10 16 0.08 2.03
5:15 pm 17:15 Cloudy 72 22 70 21 94 94 S 6 9 29.92 1013 10 16 0.00 0.00
5:35 pm 17:35 Cloudy with Drizzle 70 21 70 21 100 100 SW 3 6 29.92 1013 7 11 0.00 0.00
5:55 pm 17:55 Cloudy with Light Rain 72 22 70 21 94 94 Calm 29.91 1013 7 11 0.01 0.25
6:15 pm 18:15 Cloudy with Drizzle 70 21 70 21 100 100 Calm 29.91 1013 7 11 0.01 0.25
6:35 pm 18:35 Cloudy with Light Rain 70 21 70 21 100 100 Calm 29.91 1013 7 11 0.01 0.25
6:55 pm 18:55 Cloudy 70 21 70 21 100 100 Calm 29.91 1013 10 16 0.01 0.25
7:15 pm 19:15 Cloudy with Light Rain 70 21 70 21 100 100 Calm 29.91 1013 7 11 0.00 0.00
7:35 pm 19:35 Cloudy 70 21 70 21 100 100 Calm 29.90 1013 7 11 0.00 0.00
7:55 pm 19:55 Cloudy 70 21 70 21 100 100 Calm 29.91 1013 10 16 0.00 0.00
8:15 pm 20:15 Cloudy 70 21 70 21 100 100 Calm 29.91 1013 10 16 0.00 0.00
8:35 pm 20:35 Mostly Cloudy 70 21 70 21 100 100 Calm 29.90 1013 10 16 0.00 0.00
8:55 pm 20:55 Mostly Cloudy 70 21 70 21 100 100 Calm 29.91 1013 10 16 0.00 0.00
9:15 pm 21:15 Cloudy 70 21 70 21 100 100 Calm 29.92 1013 10 16 0.00 0.00
9:35 pm 21:35 Cloudy 70 21 70 21 100 100 Calm 29.92 1013 10 16 0.00 0.00
9:55 pm 21:55 Cloudy 70 21 70 21 100 100 Calm 29.93 1014 10 16 0.00 0.00
10:15 pm 22:15 Cloudy 70 21 70 21 100 100 Calm 29.92 1013 10 16 0.00 0.00
10:35 pm 22:35 Partly Cloudy 70 21 70 21 100 100 SSE 5 7 29.92 1013 10 16 0.00 0.00
10:55 pm 22:55 Clear 70 21 70 21 100 100 SSE 6 9 29.92 1013 10 16 0.00 0.00
11:15 pm 23:15 Partly Cloudy 70 21 70 21 100 100 S 6 9 29.91 1013 10 16 0.00 0.00
11:35 pm 23:35 Partly Cloudy 68 20 68 20 100 100 SSW 5 7 29.91 1013 10 16 0.00 0.00
11:55 pm 23:55 Clear 68 20 68 20 100 100 S 3 6 29.91 1013 10 16 0.00 0.00

Powered by AerisWeather